This is the latest recevied weather packets stored in our database for station/object K6GMW. If no packets are shown the sender has not sent any weather packets the latest 10 day(s).
| Time | Temp. | Humidity | Pressure | Rain* | Wind** | Luminosity | Snow |
|---|---|---|---|---|---|---|---|
| 1788449803 | 30.56° C | 65% | 1016.8 hPa | 0 mm | - | 714 W/m² | - |
| 1788449499 | 30° C | 65% | 1016.8 hPa | 0 mm | - | 699 W/m² | - |
| 1788449195 | 30.56° C | 65% | 1016.7 hPa | 0 mm | - | 685 W/m² | - |
| 1788448891 | 30° C | 66% | 1016.7 hPa | 0 mm | - | 670 W/m² | - |
| 1788448590 | 30° C | 66% | 1016.6 hPa | 0 mm | - | 658 W/m² | - |
| 1788448286 | 29.44° C | 68% | 1016.8 hPa | 0 mm | - | 638 W/m² | - |
| 1788447986 | 29.44° C | 68% | 1016.7 hPa | 0 mm | - | 623 W/m² | - |
| 1788447681 | 29.44° C | 68% | 1016.5 hPa | 0 mm | - | 606 W/m² | - |
| 1788447380 | 29.44° C | 68% | 1016.8 hPa | 0 mm | - | 588 W/m² | - |
| 1788447075 | 28.89° C | 70% | 1016.6 hPa | 0 mm | - | 572 W/m² | - |
| 1788446774 | 28.89° C | 69% | 1016.7 hPa | 0 mm | - | 554 W/m² | - |
| 1788446471 | 28.89° C | 70% | 1016.8 hPa | 0 mm | - | 535 W/m² | - |
| 1788446167 | 28.89° C | 71% | 1016.6 hPa | 0 mm | - | 515 W/m² | - |
| 1788445862 | 28.89° C | 71% | 1016.7 hPa | 0 mm | - | 498 W/m² | - |
| 1788445557 | 28.89° C | 71% | 1016.8 hPa | 0 mm | - | 477 W/m² | - |
| 1788445254 | 28.33° C | 72% | 1016.8 hPa | 0 mm | - | 454 W/m² | - |
| 1788444949 | 28.33° C | 72% | 1016.9 hPa | 0 mm | - | 437 W/m² | - |
| 1788444644 | 28.33° C | 73% | 1016.8 hPa | 0 mm | - | 433 W/m² | - |
| 1788444340 | 28.33° C | 73% | 1016.9 hPa | 0 mm | - | 415 W/m² | - |
| 1788444035 | 28.33° C | 73% | 1016.8 hPa | 0 mm | - | 396 W/m² | - |
| 1788443731 | 27.78° C | 74% | 1016.9 hPa | 0 mm | - | 381 W/m² | - |
| 1788443431 | 27.78° C | 75% | 1016.7 hPa | 0 mm | - | 348 W/m² | - |
| 1788443130 | 27.22° C | 76% | 1016.9 hPa | 0 mm | - | 285 W/m² | - |
| 1788442826 | 27.22° C | 78% | 1017 hPa | 0 mm | - | 107 W/m² | - |
| 1788442524 | 26.67° C | 78% | 1017 hPa | 0 mm | - | 76 W/m² | - |
* Rain latest hour (hover to see other rain measurements)
** Current wind speed in m/s (hover to see current wind gust speed)